When you browse on this site, cookies collect data to enhance your experience and personalize the content and advertising you see.
Visit our Privacy Policy to learn more. By continuing to use the site, you agree to this use of cookies and data.
  • En España
  • Lista de países
  • Para 7 días
  • Temperatura del agua
  • Mapa Satelital
  • El tiempo en el mapa
  • Informadores
  • user-avatar
    Iniciar sesión

    Tiempo cada hora Luanda

    Hoy, 20 Enero, Domingo

    Tiempo Temperatura Precipitaciones Viento Presión Humedad
    00:00 +27°C° 0 mm 3 mps 754 mmHg 83%
    01:00 +27°C° 0 mm 2 mps 754 mmHg 83%
    02:00 +27°C° 0 mm 2 mps 754 mmHg 83%
    03:00 +27°C° 0 mm 2 mps 754 mmHg 83%
    04:00 +27°C° 0 mm 2 mps 754 mmHg 84%
    05:00 +27°C° 0 mm 2 mps 754 mmHg 83%
    06:00 +27°C° 0 mm 2 mps 754 mmHg 83%
    07:00 +27°C° 0 mm 2 mps 755 mmHg 82%
    08:00 +29°C° 0.1 mm 2 mps 755 mmHg 76%
    09:00 +30°C° 0.1 mm 2 mps 755 mmHg 70%
    10:00 +32°C° 0.1 mm 2 mps 755 mmHg 63%
    11:00 +33°C° 0 mm 3 mps 755 mmHg 62%
    12:00 +33°C° 0 mm 3 mps 754 mmHg 61%
    13:00 +34°C° 0 mm 4 mps 754 mmHg 60%
    14:00 +34°C° 0 mm 5 mps 753 mmHg 59%
    15:00 +34°C° 0 mm 5 mps 753 mmHg 58%
    16:00 +34°C° 0 mm 5 mps 752 mmHg 58%
    17:00 +33°C° 0 mm 5 mps 753 mmHg 63%
    18:00 +30°C° 0 mm 4 mps 753 mmHg 68%
    19:00 +29°C° 0 mm 4 mps 753 mmHg 73%
    20:00 +29°C° 0 mm 3 mps 754 mmHg 75%
    21:00 +28°C° 0 mm 3 mps 754 mmHg 77%
    22:00 +28°C° 0 mm 2 mps 755 mmHg 78%
    23:00 +28°C° 0 mm 2 mps 755 mmHg 79%

    Mañana, 21 Enero, Lunes

    Tiempo Temperatura Precipitaciones Viento Presión Humedad
    00:00 +28°C° 0 mm 2 mps 755 mmHg 81%
    01:00 +27°C° 0 mm 1 mps 755 mmHg 82%
    02:00 +27°C° 0 mm 1 mps 755 mmHg 83%
    03:00 +27°C° 0 mm 2 mps 755 mmHg 84%
    04:00 +27°C° 0 mm 2 mps 754 mmHg 85%
    05:00 +27°C° 0 mm 2 mps 755 mmHg 85%
    06:00 +27°C° 0 mm 2 mps 755 mmHg 84%
    07:00 +27°C° 0 mm 2 mps 755 mmHg 84%
    08:00 +28°C° 0 mm 2 mps 755 mmHg 76%
    09:00 +30°C° 0 mm 1 mps 756 mmHg 69%
    10:00 +32°C° 0 mm 1 mps 756 mmHg 61%
    11:00 +32°C° 0 mm 2 mps 755 mmHg 59%
    12:00 +33°C° 0 mm 3 mps 755 mmHg 57%
    13:00 +34°C° 0 mm 3 mps 754 mmHg 55%
    14:00 +33°C° 0 mm 4 mps 753 mmHg 57%
    15:00 +33°C° 0 mm 4 mps 753 mmHg 58%
    16:00 +33°C° 0 mm 5 mps 752 mmHg 59%
    17:00 +32°C° 0 mm 5 mps 753 mmHg 64%
    18:00 +30°C° 0 mm 4 mps 753 mmHg 68%
    19:00 +29°C° 0 mm 4 mps 753 mmHg 72%
    20:00 +29°C° 0 mm 3 mps 754 mmHg 73%
    21:00 +28°C° 0 mm 3 mps 754 mmHg 74%
    22:00 +28°C° 0 mm 2 mps 755 mmHg 75%
    23:00 +28°C° 0 mm 2 mps 755 mmHg 76%

    Pasado mañana, 22 Enero, Martes

    Tiempo Temperatura Precipitaciones Viento Presión Humedad
    00:00 +28°C° 0 mm 3 mps 754 mmHg 77%
    01:00 +28°C° 0 mm 3 mps 754 mmHg 77%
    02:00 +27°C° 0 mm 3 mps 754 mmHg 78%
    03:00 +27°C° 0 mm 3 mps 754 mmHg 79%
    04:00 +27°C° 0 mm 3 mps 753 mmHg 80%
    05:00 +27°C° 0 mm 3 mps 754 mmHg 80%
    06:00 +27°C° 0 mm 2 mps 754 mmHg 79%
    07:00 +27°C° 0 mm 2 mps 754 mmHg 79%
    08:00 +29°C° 0 mm 2 mps 755 mmHg 71%
    09:00 +30°C° 0 mm 2 mps 755 mmHg 64%
    10:00 +32°C° 0 mm 2 mps 755 mmHg 56%
    11:00 +34°C° 0 mm 3 mps 755 mmHg 54%
    12:00 +35°C° 0 mm 4 mps 754 mmHg 51%
    13:00 +36°C° 0 mm 5 mps 753 mmHg 49%
    14:00 +35°C° 0 mm 6 mps 753 mmHg 52%
    15:00 +34°C° 0 mm 6 mps 752 mmHg 54%
    16:00 +33°C° 0 mm 7 mps 752 mmHg 57%
    17:00 +32°C° 0 mm 6 mps 752 mmHg 63%
    18:00 +30°C° 0 mm 6 mps 753 mmHg 68%
    19:00 +29°C° 0 mm 5 mps 753 mmHg 74%
    20:00 +29°C° 0 mm 5 mps 754 mmHg 75%
    21:00 +28°C° 0 mm 5 mps 755 mmHg 77%
    22:00 +28°C° 0 mm 4 mps 755 mmHg 78%
    23:00 +28°C° 0 mm 4 mps 755 mmHg 79%

    23 Enero, Miércoles

    Tiempo Temperatura Precipitaciones Viento Presión Humedad
    00:00 +28°C° 0 mm 3 mps 755 mmHg 80%
    01:00 +27°C° 0 mm 3 mps 754 mmHg 81%
    02:00 +27°C° 0 mm 3 mps 754 mmHg 82%
    03:00 +27°C° 0 mm 3 mps 754 mmHg 83%
    04:00 +27°C° 0 mm 3 mps 753 mmHg 84%
    05:00 +27°C° 0 mm 3 mps 754 mmHg 84%
    06:00 +27°C° 0 mm 3 mps 754 mmHg 83%
    07:00 +27°C° 0 mm 2 mps 754 mmHg 83%
    08:00 +28°C° 0 mm 2 mps 755 mmHg 77%
    09:00 +29°C° 0 mm 2 mps 755 mmHg 71%
    10:00 +30°C° 0 mm 1 mps 755 mmHg 65%
    11:00 +32°C° 0 mm 1 mps 755 mmHg 59%
    12:00 +34°C° 0 mm 2 mps 754 mmHg 53%
    13:00 +35°C° 0 mm 2 mps 753 mmHg 47%
    14:00 +35°C° 0 mm 3 mps 753 mmHg 51%
    15:00 +34°C° 0 mm 4 mps 752 mmHg 55%
    16:00 +33°C° 0 mm 5 mps 751 mmHg 60%
    17:00 +32°C° 0 mm 5 mps 752 mmHg 65%
    18:00 +30°C° 0 mm 4 mps 752 mmHg 70%
    19:00 +29°C° 0 mm 4 mps 752 mmHg 75%
    20:00 +29°C° 0 mm 4 mps 753 mmHg 76%
    21:00 +28°C° 0 mm 3 mps 753 mmHg 76%
    22:00 +28°C° 0 mm 3 mps 754 mmHg 76%
    23:00 +28°C° 0 mm 3 mps 754 mmHg 78%

    24 Enero, Jueves

    Tiempo Temperatura Precipitaciones Viento Presión Humedad
    00:00 +28°C° 0 mm 3 mps 753 mmHg 79%
    01:00 +27°C° 0 mm 2 mps 753 mmHg 81%
    02:00 +28°C° 0 mm 2 mps 753 mmHg 81%
    03:00 +28°C° 0 mm 2 mps 752 mmHg 80%
    04:00 +28°C° 0 mm 2 mps 752 mmHg 80%
    05:00 +28°C° 0 mm 1 mps 752 mmHg 80%
    06:00 +28°C° 0 mm 1 mps 753 mmHg 80%
    07:00 +28°C° 0 mm 1 mps 753 mmHg 80%
    08:00 +29°C° 0 mm 1 mps 753 mmHg 73%
    09:00 +31°C° 0 mm 1 mps 753 mmHg 65%
    10:00 +30°C° 0 mm 0 mps 754 mmHg 58%
    11:00 +34°C° 0 mm 2 mps 753 mmHg 54%
    12:00 +35°C° 0 mm 3 mps 752 mmHg 50%
    13:00 +36°C° 0 mm 4 mps 752 mmHg 47%
    14:00 +35°C° 0 mm 5 mps 751 mmHg 50%
    15:00 +34°C° 0 mm 5 mps 751 mmHg 54%
    16:00 +34°C° 0 mm 6 mps 750 mmHg 57%
    17:00 +32°C° 0 mm 5 mps 750 mmHg 62%
    18:00 +30°C° 0 mm 4 mps 751 mmHg 66%
    19:00 +29°C° 0 mm 4 mps 751 mmHg 71%
    20:00 +29°C° 0 mm 3 mps 752 mmHg 72%
    21:00 +28°C° 0 mm 3 mps 753 mmHg 74%
    22:00 +28°C° 0 mm 2 mps 753 mmHg 76%
    23:00 +28°C° 0 mm 2 mps 753 mmHg 77%

    25 Enero, Viernes

    Tiempo Temperatura Precipitaciones Viento Presión Humedad
    00:00 +27°C° 0 mm 2 mps 753 mmHg 79%
    01:00 +27°C° 0 mm 1 mps 752 mmHg 80%
    02:00 +27°C° 0 mm 1 mps 752 mmHg 82%
    03:00 +27°C° 0 mm 1 mps 752 mmHg 83%
    04:00 +26°C° 0 mm 1 mps 752 mmHg 84%
    05:00 +27°C° 0 mm 2 mps 753 mmHg 84%
    06:00 +27°C° 0 mm 2 mps 753 mmHg 83%
    07:00 +27°C° 0 mm 2 mps 753 mmHg 83%
    08:00 +29°C° 0 mm 2 mps 754 mmHg 74%
    09:00 +30°C° 0 mm 1 mps 754 mmHg 65%
    10:00 +32°C° 0 mm 1 mps 754 mmHg 57%
    11:00 +34°C° 0 mm 2 mps 753 mmHg 53%
    12:00 +35°C° 0 mm 3 mps 753 mmHg 50%
    13:00 +36°C° 0 mm 4 mps 752 mmHg 46%
    14:00 +35°C° 0 mm 4 mps 751 mmHg 50%
    15:00 +34°C° 0 mm 4 mps 751 mmHg 54%
    16:00 +33°C° 0 mm 5 mps 750 mmHg 58%
    17:00 +32°C° 0 mm 4 mps 751 mmHg 63%
    18:00 +30°C° 0 mm 4 mps 751 mmHg 68%
    19:00 +29°C° 0 mm 4 mps 752 mmHg 72%
    20:00 +29°C° 0 mm 4 mps 753 mmHg 74%
    21:00 +29°C° 0 mm 3 mps 753 mmHg 76%
    22:00 +28°C° 0 mm 3 mps 754 mmHg 77%
    23:00 +28°C° 0 mm 3 mps 754 mmHg 78%
    Mostrar más